owner,sensor,date,latitude,longitude,air_temperature,qcFlag 
DISL,ioos:station:DISL:BSCA:1,2017-02-01T00:00:00Z,30.3288,-87.8293,16.07,1111122 
DISL,ioos:station:DISL:BSCA:1,2017-02-01T00:30:00Z,30.3288,-87.8293,16.41,1111122 
DISL,ioos:station:DISL:BSCA:1,2017-02-01T01:00:00Z,30.3288,-87.8293,16.2,1111122 
DISL,ioos:station:DISL:BSCA:1,2017-02-01T01:30:00Z,30.3288,-87.8293,16.27,1111122 
DISL,ioos:station:DISL:BSCA:1,2017-02-01T02:00:00Z,30.3288,-87.8293,15.87,1111122 
DISL,ioos:station:DISL:BSCA:1,2017-02-01T02:30:00Z,30.3288,-87.8293,15.88,1111122 
DISL,ioos:station:DISL:BSCA:1,2017-02-01T03:00:00Z,30.3288,-87.8293,16.25,1111122 
DISL,ioos:station:DISL:BSCA:1,2017-02-01T03:30:00Z,30.3288,-87.8293,16.08,1111122 
DISL,ioos:station:DISL:BSCA:1,2017-02-01T04:00:00Z,30.3288,-87.8293,15.88,1111122 
DISL,ioos:station:DISL:BSCA:1,2017-02-01T04:30:00Z,30.3288,-87.8293,16.05,1111122 
DISL,ioos:station:DISL:BSCA:1,2017-02-01T05:00:00Z,30.3288,-87.8293,16.12,1111122 
DISL,ioos:station:DISL:BSCA:1,2017-02-01T05:30:00Z,30.3288,-87.8293,16.02,1111122 
DISL,ioos:station:DISL:BSCA:1,2017-02-01T06:00:00Z,30.3288,-87.8293,15.78,1111122 
DISL,ioos:station:DISL:BSCA:1,2017-02-01T06:30:00Z,30.3288,-87.8293,15.75,1111122 
DISL,ioos:station:DISL:BSCA:1,2017-02-01T07:00:00Z,30.3288,-87.8293,15.48,1111122 
DISL,ioos:station:DISL:BSCA:1,2017-02-01T07:30:00Z,30.3288,-87.8293,15.37,1111122 
DISL,ioos:station:DISL:BSCA:1,2017-02-01T08:00:00Z,30.3288,-87.8293,15.27,1111122 
DISL,ioos:station:DISL:BSCA:1,2017-02-01T08:30:00Z,30.3288,-87.8293,15.27,1111122 
DISL,ioos:station:DISL:BSCA:1,2017-02-01T09:00:00Z,30.3288,-87.8293,15.54,1111122 
DISL,ioos:station:DISL:BSCA:1,2017-02-01T09:30:00Z,30.3288,-87.8293,15.37,1111122 
DISL,ioos:station:DISL:BSCA:1,2017-02-01T10:00:00Z,30.3288,-87.8293,15.21,1111122 
DISL,ioos:station:DISL:BSCA:1,2017-02-01T10:30:00Z,30.3288,-87.8293,14.32,1111122 
DISL,ioos:station:DISL:BSCA:1,2017-02-01T11:00:00Z,30.3288,-87.8293,14.9,1111122 
DISL,ioos:station:DISL:BSCA:1,2017-02-01T11:30:00Z,30.3288,-87.8293,13.41,1111122 
DISL,ioos:station:DISL:BSCA:1,2017-02-01T12:00:00Z,30.3288,-87.8293,13.41,1111122 
DISL,ioos:station:DISL:BSCA:1,2017-02-01T12:30:00Z,30.3288,-87.8293,12.36,1111122 
DISL,ioos:station:DISL:BSCA:1,2017-02-01T13:00:00Z,30.3288,-87.8293,12.63,1111122 
DISL,ioos:station:DISL:BSCA:1,2017-02-01T13:30:00Z,30.3288,-87.8293,13.14,1111122 
DISL,ioos:station:DISL:BSCA:1,2017-02-01T14:00:00Z,30.3288,-87.8293,13.58,1111122 
DISL,ioos:station:DISL:BSCA:1,2017-02-01T14:30:00Z,30.3288,-87.8293,15.3,1111122 
DISL,ioos:station:DISL:BSCA:1,2017-02-01T15:00:00Z,30.3288,-87.8293,16.31,1111122 
DISL,ioos:station:DISL:BSCA:1,2017-02-01T15:30:00Z,30.3288,-87.8293,16.27,1111122 
DISL,ioos:station:DISL:BSCA:1,2017-02-01T16:00:00Z,30.3288,-87.8293,17.42,1111122 
DISL,ioos:station:DISL:BSCA:1,2017-02-01T16:30:00Z,30.3288,-87.8293,17.79,1111122 
DISL,ioos:station:DISL:BSCA:1,2017-02-01T17:00:00Z,30.3288,-87.8293,17.61,1111122 
DISL,ioos:station:DISL:BSCA:1,2017-02-01T17:30:00Z,30.3288,-87.8293,18.08,1111122 
DISL,ioos:station:DISL:BSCA:1,2017-02-01T18:00:00Z,30.3288,-87.8293,18.73,1111122 
DISL,ioos:station:DISL:BSCA:1,2017-02-01T18:30:00Z,30.3288,-87.8293,19.06,1111122 
DISL,ioos:station:DISL:BSCA:1,2017-02-01T19:00:00Z,30.3288,-87.8293,19.05,1111122 
DISL,ioos:station:DISL:BSCA:1,2017-02-01T19:30:00Z,30.3288,-87.8293,19.29,1111122 
DISL,ioos:station:DISL:BSCA:1,2017-02-01T20:00:00Z,30.3288,-87.8293,19.25,1111122 
DISL,ioos:station:DISL:BSCA:1,2017-02-01T20:30:00Z,30.3288,-87.8293,18.95,1111122 
DISL,ioos:station:DISL:BSCA:1,2017-02-01T21:00:00Z,30.3288,-87.8293,18.66,1111122 
DISL,ioos:station:DISL:BSCA:1,2017-02-01T21:30:00Z,30.3288,-87.8293,18.73,1111122 
DISL,ioos:station:DISL:BSCA:1,2017-02-01T22:00:00Z,30.3288,-87.8293,18.56,1111122 
DISL,ioos:station:DISL:BSCA:1,2017-02-01T22:30:00Z,30.3288,-87.8293,18.59,1111122 
DISL,ioos:station:DISL:BSCA:1,2017-02-01T23:00:00Z,30.3288,-87.8293,18.05,1111122 
DISL,ioos:station:DISL:BSCA:1,2017-02-01T23:30:00Z,30.3288,-87.8293,17.51,1111122 
DISL,ioos:station:DISL:BSCA:1,2017-02-02T00:00:00Z,30.3288,-87.8293,17.35,1111122 
DISL,ioos:station:DISL:BSCA:1,2017-02-02T00:30:00Z,30.3288,-87.8293,17.25,1111122 
DISL,ioos:station:DISL:BSCA:1,2017-02-02T01:00:00Z,30.3288,-87.8293,17.22,1111122 
DISL,ioos:station:DISL:BSCA:1,2017-02-02T01:30:00Z,30.3288,-87.8293,16.71,1111122 
DISL,ioos:station:DISL:BSCA:1,2017-02-02T02:00:00Z,30.3288,-87.8293,16.75,1111122 
DISL,ioos:station:DISL:BSCA:1,2017-02-02T02:30:00Z,30.3288,-87.8293,16.54,1111122 
DISL,ioos:station:DISL:BSCA:1,2017-02-02T03:00:00Z,30.3288,-87.8293,16.54,1111122 
DISL,ioos:station:DISL:BSCA:1,2017-02-02T03:30:00Z,30.3288,-87.8293,17.08,1111122 
DISL,ioos:station:DISL:BSCA:1,2017-02-02T04:00:00Z,30.3288,-87.8293,16.78,1111122 
DISL,ioos:station:DISL:BSCA:1,2017-02-02T04:30:00Z,30.3288,-87.8293,16.34,1111122 
DISL,ioos:station:DISL:BSCA:1,2017-02-02T05:00:00Z,30.3288,-87.8293,16.54,1111122 
DISL,ioos:station:DISL:BSCA:1,2017-02-02T05:30:00Z,30.3288,-87.8293,16.58,1111122 
DISL,ioos:station:DISL:BSCA:1,2017-02-02T06:00:00Z,30.3288,-87.8293,16.01,1111122 
DISL,ioos:station:DISL:BSCA:1,2017-02-02T06:30:00Z,30.3288,-87.8293,15.91,1111122 
DISL,ioos:station:DISL:BSCA:1,2017-02-02T07:00:00Z,30.3288,-87.8293,14.56,1111122 
DISL,ioos:station:DISL:BSCA:1,2017-02-02T07:30:00Z,30.3288,-87.8293,15.1,1111122 
DISL,ioos:station:DISL:BSCA:1,2017-02-02T08:00:00Z,30.3288,-87.8293,14.46,1111122 
DISL,ioos:station:DISL:BSCA:1,2017-02-02T08:30:00Z,30.3288,-87.8293,13.37,1111122 
DISL,ioos:station:DISL:BSCA:1,2017-02-02T09:00:00Z,30.3288,-87.8293,13.31,1111122 
DISL,ioos:station:DISL:BSCA:1,2017-02-02T09:30:00Z,30.3288,-87.8293,12.73,1111122 
DISL,ioos:station:DISL:BSCA:1,2017-02-02T10:00:00Z,30.3288,-87.8293,12.83,1111122 
DISL,ioos:station:DISL:BSCA:1,2017-02-02T10:30:00Z,30.3288,-87.8293,12.8,1111122 
DISL,ioos:station:DISL:BSCA:1,2017-02-02T11:00:00Z,30.3288,-87.8293,12.63,1111122 
DISL,ioos:station:DISL:BSCA:1,2017-02-02T11:30:00Z,30.3288,-87.8293,12.7,1111122 
DISL,ioos:station:DISL:BSCA:1,2017-02-02T12:00:00Z,30.3288,-87.8293,12.42,1111122 
DISL,ioos:station:DISL:BSCA:1,2017-02-02T12:30:00Z,30.3288,-87.8293,12.39,1111122 
DISL,ioos:station:DISL:BSCA:1,2017-02-02T13:00:00Z,30.3288,-87.8293,12.09,1111122 
DISL,ioos:station:DISL:BSCA:1,2017-02-02T13:30:00Z,30.3288,-87.8293,12.25,1111122 
DISL,ioos:station:DISL:BSCA:1,2017-02-02T14:00:00Z,30.3288,-87.8293,13.1,1111122 
DISL,ioos:station:DISL:BSCA:1,2017-02-02T14:30:00Z,30.3288,-87.8293,13.91,1111122 
DISL,ioos:station:DISL:BSCA:1,2017-02-02T15:00:00Z,30.3288,-87.8293,15.29,1111122 
DISL,ioos:station:DISL:BSCA:1,2017-02-02T15:30:00Z,30.3288,-87.8293,15.29,1111122 
DISL,ioos:station:DISL:BSCA:1,2017-02-02T16:00:00Z,30.3288,-87.8293,15.89,1111122 
DISL,ioos:station:DISL:BSCA:1,2017-02-02T16:30:00Z,30.3288,-87.8293,16.66,1111122 
DISL,ioos:station:DISL:BSCA:1,2017-02-02T17:00:00Z,30.3288,-87.8293,17.57,1111122 
DISL,ioos:station:DISL:BSCA:1,2017-02-02T17:30:00Z,30.3288,-87.8293,17.78,1111122 
DISL,ioos:station:DISL:BSCA:1,2017-02-02T18:00:00Z,30.3288,-87.8293,17.54,1111122 
DISL,ioos:station:DISL:BSCA:1,2017-02-02T18:30:00Z,30.3288,-87.8293,17.57,1111122 
DISL,ioos:station:DISL:BSCA:1,2017-02-02T19:00:00Z,30.3288,-87.8293,17.84,1111122 
DISL,ioos:station:DISL:BSCA:1,2017-02-02T19:30:00Z,30.3288,-87.8293,18.73,1111122 
DISL,ioos:station:DISL:BSCA:1,2017-02-02T20:00:00Z,30.3288,-87.8293,19.06,1111122 
DISL,ioos:station:DISL:BSCA:1,2017-02-02T20:30:00Z,30.3288,-87.8293,19.27,1111122 
DISL,ioos:station:DISL:BSCA:1,2017-02-02T21:00:00Z,30.3288,-87.8293,19.03,1111122 
DISL,ioos:station:DISL:BSCA:1,2017-02-02T21:30:00Z,30.3288,-87.8293,19.13,1111122 
DISL,ioos:station:DISL:BSCA:1,2017-02-02T22:00:00Z,30.3288,-87.8293,19.1,1111122 
DISL,ioos:station:DISL:BSCA:1,2017-02-02T22:30:00Z,30.3288,-87.8293,19.1,1111122 
DISL,ioos:station:DISL:BSCA:1,2017-02-02T23:00:00Z,30.3288,-87.8293,18.83,1111122 
DISL,ioos:station:DISL:BSCA:1,2017-02-02T23:30:00Z,30.3288,-87.8293,18.42,1111122 
DISL,ioos:station:DISL:BSCA:1,2017-02-03T00:00:00Z,30.3288,-87.8293,18.19,1111122 
DISL,ioos:station:DISL:BSCA:1,2017-02-03T00:30:00Z,30.3288,-87.8293,17.86,1111122 
DISL,ioos:station:DISL:BSCA:1,2017-02-03T01:00:00Z,30.3288,-87.8293,17.59,1111122 
DISL,ioos:station:DISL:BSCA:1,2017-02-03T01:30:00Z,30.3288,-87.8293,17.46,1111122 
DISL,ioos:station:DISL:BSCA:1,2017-02-03T02:00:00Z,30.3288,-87.8293,17.46,1111122 
DISL,ioos:station:DISL:BSCA:1,2017-02-03T02:30:00Z,30.3288,-87.8293,17.36,1111122 
DISL,ioos:station:DISL:BSCA:1,2017-02-03T03:00:00Z,30.3288,-87.8293,17.32,1111122 
DISL,ioos:station:DISL:BSCA:1,2017-02-03T03:30:00Z,30.3288,-87.8293,17.25,1111122 
DISL,ioos:station:DISL:BSCA:1,2017-02-03T04:00:00Z,30.3288,-87.8293,17.32,1111122 
DISL,ioos:station:DISL:BSCA:1,2017-02-03T04:30:00Z,30.3288,-87.8293,17.25,1111122 
DISL,ioos:station:DISL:BSCA:1,2017-02-03T05:00:00Z,30.3288,-87.8293,17.05,1111122 
DISL,ioos:station:DISL:BSCA:1,2017-02-03T05:30:00Z,30.3288,-87.8293,16.92,1111122 
DISL,ioos:station:DISL:BSCA:1,2017-02-03T06:00:00Z,30.3288,-87.8293,16.92,1111122 
DISL,ioos:station:DISL:BSCA:1,2017-02-03T06:30:00Z,30.3288,-87.8293,16.2,1111122 
DISL,ioos:station:DISL:BSCA:1,2017-02-03T07:00:00Z,30.3288,-87.8293,16.61,1111122 
DISL,ioos:station:DISL:BSCA:1,2017-02-03T07:30:00Z,30.3288,-87.8293,16.37,1111122 
DISL,ioos:station:DISL:BSCA:1,2017-02-03T08:00:00Z,30.3288,-87.8293,16.44,1111122 
DISL,ioos:station:DISL:BSCA:1,2017-02-03T08:30:00Z,30.3288,-87.8293,16.31,1111122 
DISL,ioos:station:DISL:BSCA:1,2017-02-03T09:00:00Z,30.3288,-87.8293,14.75,1111122 
DISL,ioos:station:DISL:BSCA:1,2017-02-03T09:30:00Z,30.3288,-87.8293,14.92,1111122 
DISL,ioos:station:DISL:BSCA:1,2017-02-03T10:00:00Z,30.3288,-87.8293,14.95,1111122 
DISL,ioos:station:DISL:BSCA:1,2017-02-03T10:30:00Z,30.3288,-87.8293,14.81,1111122 
DISL,ioos:station:DISL:BSCA:1,2017-02-03T11:00:00Z,30.3288,-87.8293,15.26,1111122 
DISL,ioos:station:DISL:BSCA:1,2017-02-03T11:30:00Z,30.3288,-87.8293,15.46,1111122 
DISL,ioos:station:DISL:BSCA:1,2017-02-03T12:00:00Z,30.3288,-87.8293,15.29,1111122 
DISL,ioos:station:DISL:BSCA:1,2017-02-03T12:30:00Z,30.3288,-87.8293,15.22,1111122 
DISL,ioos:station:DISL:BSCA:1,2017-02-03T13:00:00Z,30.3288,-87.8293,15.02,1111122 
DISL,ioos:station:DISL:BSCA:1,2017-02-03T13:30:00Z,30.3288,-87.8293,15.08,1111122 
DISL,ioos:station:DISL:BSCA:1,2017-02-03T14:00:00Z,30.3288,-87.8293,15.02,1111122 
DISL,ioos:station:DISL:BSCA:1,2017-02-03T14:30:00Z,30.3288,-87.8293,15.05,1111122 
DISL,ioos:station:DISL:BSCA:1,2017-02-03T15:00:00Z,30.3288,-87.8293,15.12,1111122 
DISL,ioos:station:DISL:BSCA:1,2017-02-03T15:30:00Z,30.3288,-87.8293,15.22,1111122 
DISL,ioos:station:DISL:BSCA:1,2017-02-03T16:00:00Z,30.3288,-87.8293,15.32,1111122 
DISL,ioos:station:DISL:BSCA:1,2017-02-03T16:30:00Z,30.3288,-87.8293,15.25,1111122 
DISL,ioos:station:DISL:BSCA:1,2017-02-03T17:00:00Z,30.3288,-87.8293,13.22,1111122 
DISL,ioos:station:DISL:BSCA:1,2017-02-03T17:30:00Z,30.3288,-87.8293,12.51,1111122 
DISL,ioos:station:DISL:BSCA:1,2017-02-03T18:00:00Z,30.3288,-87.8293,12.21,1111122 
DISL,ioos:station:DISL:BSCA:1,2017-02-03T18:30:00Z,30.3288,-87.8293,12.32,1111122 
DISL,ioos:station:DISL:BSCA:1,2017-02-03T19:00:00Z,30.3288,-87.8293,12.18,1111122 
DISL,ioos:station:DISL:BSCA:1,2017-02-03T19:30:00Z,30.3288,-87.8293,13.46,1111122 
DISL,ioos:station:DISL:BSCA:1,2017-02-03T20:00:00Z,30.3288,-87.8293,13.93,1111122 
DISL,ioos:station:DISL:BSCA:1,2017-02-03T20:30:00Z,30.3288,-87.8293,14.2,1111122 
DISL,ioos:station:DISL:BSCA:1,2017-02-03T21:00:00Z,30.3288,-87.8293,13.76,1111122 
DISL,ioos:station:DISL:BSCA:1,2017-02-03T21:30:00Z,30.3288,-87.8293,13.42,1111122 
DISL,ioos:station:DISL:BSCA:1,2017-02-03T22:00:00Z,30.3288,-87.8293,13.63,1111122 
DISL,ioos:station:DISL:BSCA:1,2017-02-03T22:30:00Z,30.3288,-87.8293,13.63,1111122 
DISL,ioos:station:DISL:BSCA:1,2017-02-03T23:00:00Z,30.3288,-87.8293,13.05,1111122 
DISL,ioos:station:DISL:BSCA:1,2017-02-03T23:30:00Z,30.3288,-87.8293,12.58,1111122 
DISL,ioos:station:DISL:BSCA:1,2017-02-04T00:00:00Z,30.3288,-87.8293,11.81,1111122 
DISL,ioos:station:DISL:BSCA:1,2017-02-04T00:30:00Z,30.3288,-87.8293,10.8,1111122 
DISL,ioos:station:DISL:BSCA:1,2017-02-04T01:00:00Z,30.3288,-87.8293,10.25,1111122 
DISL,ioos:station:DISL:BSCA:1,2017-02-04T01:30:00Z,30.3288,-87.8293,9.92,1111122 
DISL,ioos:station:DISL:BSCA:1,2017-02-04T02:00:00Z,30.3288,-87.8293,9.73,1111122 
DISL,ioos:station:DISL:BSCA:1,2017-02-04T02:30:00Z,30.3288,-87.8293,9.59,1111122 
DISL,ioos:station:DISL:BSCA:1,2017-02-04T03:00:00Z,30.3288,-87.8293,9.56,1111122 
DISL,ioos:station:DISL:BSCA:1,2017-02-04T03:30:00Z,30.3288,-87.8293,9.53,1111122 
DISL,ioos:station:DISL:BSCA:1,2017-02-04T04:00:00Z,30.3288,-87.8293,9.42,1111122 
DISL,ioos:station:DISL:BSCA:1,2017-02-04T04:30:00Z,30.3288,-87.8293,9.29,1111122 
DISL,ioos:station:DISL:BSCA:1,2017-02-04T05:00:00Z,30.3288,-87.8293,9.32,1111122 
DISL,ioos:station:DISL:BSCA:1,2017-02-04T05:30:00Z,30.3288,-87.8293,8.68,1111122 
DISL,ioos:station:DISL:BSCA:1,2017-02-04T06:00:00Z,30.3288,-87.8293,8.03,1111122 
DISL,ioos:station:DISL:BSCA:1,2017-02-04T06:30:00Z,30.3288,-87.8293,7.693,1111122 
DISL,ioos:station:DISL:BSCA:1,2017-02-04T07:00:00Z,30.3288,-87.8293,7.388,1111122 
DISL,ioos:station:DISL:BSCA:1,2017-02-04T07:30:00Z,30.3288,-87.8293,6.849,1111122 
DISL,ioos:station:DISL:BSCA:1,2017-02-04T08:00:00Z,30.3288,-87.8293,6.616,1111122 
DISL,ioos:station:DISL:BSCA:1,2017-02-04T08:30:00Z,30.3288,-87.8293,6.108,1111122 
DISL,ioos:station:DISL:BSCA:1,2017-02-04T09:00:00Z,30.3288,-87.8293,5.842,1111122 
DISL,ioos:station:DISL:BSCA:1,2017-02-04T09:30:00Z,30.3288,-87.8293,5.232,1111122 
DISL,ioos:station:DISL:BSCA:1,2017-02-04T10:00:00Z,30.3288,-87.8293,4.791,1111122 
DISL,ioos:station:DISL:BSCA:1,2017-02-04T10:30:00Z,30.3288,-87.8293,4.554,1111122 
DISL,ioos:station:DISL:BSCA:1,2017-02-04T11:00:00Z,30.3288,-87.8293,4.045,1111122 
DISL,ioos:station:DISL:BSCA:1,2017-02-04T11:30:00Z,30.3288,-87.8293,3.807,1111122 
DISL,ioos:station:DISL:BSCA:1,2017-02-04T12:00:00Z,30.3288,-87.8293,3.78,1111122 
DISL,ioos:station:DISL:BSCA:1,2017-02-04T12:30:00Z,30.3288,-87.8293,3.34,1111122 
DISL,ioos:station:DISL:BSCA:1,2017-02-04T13:00:00Z,30.3288,-87.8293,3.38,1111122 
DISL,ioos:station:DISL:BSCA:1,2017-02-04T13:30:00Z,30.3288,-87.8293,3.414,1111122 
DISL,ioos:station:DISL:BSCA:1,2017-02-04T14:00:00Z,30.3288,-87.8293,4.051,1111122 
DISL,ioos:station:DISL:BSCA:1,2017-02-04T14:30:00Z,30.3288,-87.8293,4.554,1111122 
DISL,ioos:station:DISL:BSCA:1,2017-02-04T15:00:00Z,30.3288,-87.8293,4.995,1111122 
DISL,ioos:station:DISL:BSCA:1,2017-02-04T15:30:00Z,30.3288,-87.8293,5.775,1111122 
DISL,ioos:station:DISL:BSCA:1,2017-02-04T16:00:00Z,30.3288,-87.8293,7.057,1111122 
DISL,ioos:station:DISL:BSCA:1,2017-02-04T16:30:00Z,30.3288,-87.8293,7.931,1111122 
DISL,ioos:station:DISL:BSCA:1,2017-02-04T17:00:00Z,30.3288,-87.8293,9.12,1111122 
DISL,ioos:station:DISL:BSCA:1,2017-02-04T17:30:00Z,30.3288,-87.8293,9.44,1111122 
DISL,ioos:station:DISL:BSCA:1,2017-02-04T18:00:00Z,30.3288,-87.8293,10.05,1111122 
DISL,ioos:station:DISL:BSCA:1,2017-02-04T18:30:00Z,30.3288,-87.8293,10.93,1111122 
DISL,ioos:station:DISL:BSCA:1,2017-02-04T19:00:00Z,30.3288,-87.8293,10.05,1111122 
DISL,ioos:station:DISL:BSCA:1,2017-02-04T19:30:00Z,30.3288,-87.8293,10.46,1111122 
DISL,ioos:station:DISL:BSCA:1,2017-02-04T20:00:00Z,30.3288,-87.8293,10.56,1111122 
DISL,ioos:station:DISL:BSCA:1,2017-02-04T20:30:00Z,30.3288,-87.8293,10.8,1111122 
DISL,ioos:station:DISL:BSCA:1,2017-02-04T21:00:00Z,30.3288,-87.8293,11.37,1111122 
DISL,ioos:station:DISL:BSCA:1,2017-02-04T21:30:00Z,30.3288,-87.8293,11.92,1111122 
DISL,ioos:station:DISL:BSCA:1,2017-02-04T22:00:00Z,30.3288,-87.8293,12.12,1111122 
DISL,ioos:station:DISL:BSCA:1,2017-02-04T22:30:00Z,30.3288,-87.8293,12.49,1111122 
DISL,ioos:station:DISL:BSCA:1,2017-02-04T23:00:00Z,30.3288,-87.8293,12.17,1111122 
DISL,ioos:station:DISL:BSCA:1,2017-02-04T23:30:00Z,30.3288,-87.8293,11.84,1111122 
DISL,ioos:station:DISL:BSCA:1,2017-02-05T00:00:00Z,30.3288,-87.8293,11.98,1111122 
DISL,ioos:station:DISL:BSCA:1,2017-02-05T00:30:00Z,30.3288,-87.8293,12.05,1111122 
DISL,ioos:station:DISL:BSCA:1,2017-02-05T01:00:00Z,30.3288,-87.8293,12.32,1111122 
DISL,ioos:station:DISL:BSCA:1,2017-02-05T01:30:00Z,30.3288,-87.8293,12.36,1111122 
DISL,ioos:station:DISL:BSCA:1,2017-02-05T02:00:00Z,30.3288,-87.8293,12.36,1111122 
DISL,ioos:station:DISL:BSCA:1,2017-02-05T02:30:00Z,30.3288,-87.8293,11.21,1111122 
DISL,ioos:station:DISL:BSCA:1,2017-02-05T03:00:00Z,30.3288,-87.8293,10.54,1111122 
DISL,ioos:station:DISL:BSCA:1,2017-02-05T03:30:00Z,30.3288,-87.8293,10.71,1111122 
DISL,ioos:station:DISL:BSCA:1,2017-02-05T04:00:00Z,30.3288,-87.8293,11.05,1111122 
DISL,ioos:station:DISL:BSCA:1,2017-02-05T04:30:00Z,30.3288,-87.8293,10.92,1111122 
DISL,ioos:station:DISL:BSCA:1,2017-02-05T05:00:00Z,30.3288,-87.8293,11.12,1111122 
DISL,ioos:station:DISL:BSCA:1,2017-02-05T05:30:00Z,30.3288,-87.8293,10.31,1111122 
DISL,ioos:station:DISL:BSCA:1,2017-02-05T06:00:00Z,30.3288,-87.8293,9.83,1111122 
DISL,ioos:station:DISL:BSCA:1,2017-02-05T06:30:00Z,30.3288,-87.8293,9.63,1111122 
DISL,ioos:station:DISL:BSCA:1,2017-02-05T07:00:00Z,30.3288,-87.8293,10.1,1111122 
DISL,ioos:station:DISL:BSCA:1,2017-02-05T07:30:00Z,30.3288,-87.8293,10.1,1111122 
DISL,ioos:station:DISL:BSCA:1,2017-02-05T08:00:00Z,30.3288,-87.8293,10.44,1111122 
DISL,ioos:station:DISL:BSCA:1,2017-02-05T08:30:00Z,30.3288,-87.8293,9.73,1111122 
DISL,ioos:station:DISL:BSCA:1,2017-02-05T09:00:00Z,30.3288,-87.8293,9.36,1111122 
DISL,ioos:station:DISL:BSCA:1,2017-02-05T09:30:00Z,30.3288,-87.8293,9.83,1111122 
DISL,ioos:station:DISL:BSCA:1,2017-02-05T10:00:00Z,30.3288,-87.8293,10.14,1111122 
DISL,ioos:station:DISL:BSCA:1,2017-02-05T10:30:00Z,30.3288,-87.8293,9.69,1111122 
DISL,ioos:station:DISL:BSCA:1,2017-02-05T11:00:00Z,30.3288,-87.8293,9.02,1111122 
DISL,ioos:station:DISL:BSCA:1,2017-02-05T11:30:00Z,30.3288,-87.8293,9.53,1111122 
DISL,ioos:station:DISL:BSCA:1,2017-02-05T12:00:00Z,30.3288,-87.8293,10.03,1111122 
DISL,ioos:station:DISL:BSCA:1,2017-02-05T12:30:00Z,30.3288,-87.8293,10.92,1111122 
DISL,ioos:station:DISL:BSCA:1,2017-02-05T13:00:00Z,30.3288,-87.8293,11.26,1111122 
DISL,ioos:station:DISL:BSCA:1,2017-02-05T13:30:00Z,30.3288,-87.8293,10.37,1111122 
DISL,ioos:station:DISL:BSCA:1,2017-02-05T14:00:00Z,30.3288,-87.8293,10.54,1111122 
DISL,ioos:station:DISL:BSCA:1,2017-02-05T14:30:00Z,30.3288,-87.8293,11.24,1111122 
DISL,ioos:station:DISL:BSCA:1,2017-02-05T15:00:00Z,30.3288,-87.8293,13.37,1111122 
DISL,ioos:station:DISL:BSCA:1,2017-02-05T15:30:00Z,30.3288,-87.8293,14.36,1111122 
DISL,ioos:station:DISL:BSCA:1,2017-02-05T16:00:00Z,30.3288,-87.8293,15.05,1111122 
DISL,ioos:station:DISL:BSCA:1,2017-02-05T16:30:00Z,30.3288,-87.8293,15.12,1111122 
DISL,ioos:station:DISL:BSCA:1,2017-02-05T17:00:00Z,30.3288,-87.8293,16.49,1111122 
DISL,ioos:station:DISL:BSCA:1,2017-02-05T17:30:00Z,30.3288,-87.8293,15.91,1111122 
DISL,ioos:station:DISL:BSCA:1,2017-02-05T18:00:00Z,30.3288,-87.8293,16.39,1111122 
DISL,ioos:station:DISL:BSCA:1,2017-02-05T18:30:00Z,30.3288,-87.8293,16.69,1111122 
DISL,ioos:station:DISL:BSCA:1,2017-02-05T19:00:00Z,30.3288,-87.8293,16.49,1111122 
DISL,ioos:station:DISL:BSCA:1,2017-02-05T19:30:00Z,30.3288,-87.8293,16.69,1111122 
DISL,ioos:station:DISL:BSCA:1,2017-02-05T20:00:00Z,30.3288,-87.8293,16.79,1111122 
DISL,ioos:station:DISL:BSCA:1,2017-02-05T20:30:00Z,30.3288,-87.8293,17.1,1111122 
DISL,ioos:station:DISL:BSCA:1,2017-02-05T21:00:00Z,30.3288,-87.8293,17.34,1111122 
DISL,ioos:station:DISL:BSCA:1,2017-02-05T21:30:00Z,30.3288,-87.8293,17.57,1111122 
DISL,ioos:station:DISL:BSCA:1,2017-02-05T22:00:00Z,30.3288,-87.8293,17.61,1111122 
DISL,ioos:station:DISL:BSCA:1,2017-02-05T22:30:00Z,30.3288,-87.8293,17.37,1111122 
DISL,ioos:station:DISL:BSCA:1,2017-02-05T23:00:00Z,30.3288,-87.8293,17.0,1111122 
DISL,ioos:station:DISL:BSCA:1,2017-02-05T23:30:00Z,30.3288,-87.8293,16.59,1111122 
DISL,ioos:station:DISL:BSCA:1,2017-02-06T00:00:00Z,30.3288,-87.8293,16.37,1111122 
DISL,ioos:station:DISL:BSCA:1,2017-02-06T00:30:00Z,30.3288,-87.8293,16.37,1111122 
DISL,ioos:station:DISL:BSCA:1,2017-02-06T01:00:00Z,30.3288,-87.8293,16.41,1111122 
DISL,ioos:station:DISL:BSCA:1,2017-02-06T01:30:00Z,30.3288,-87.8293,16.14,1111122 
DISL,ioos:station:DISL:BSCA:1,2017-02-06T02:00:00Z,30.3288,-87.8293,15.26,1111122 
DISL,ioos:station:DISL:BSCA:1,2017-02-06T02:30:00Z,30.3288,-87.8293,15.47,1111122 
DISL,ioos:station:DISL:BSCA:1,2017-02-06T03:00:00Z,30.3288,-87.8293,15.5,1111122 
DISL,ioos:station:DISL:BSCA:1,2017-02-06T03:30:00Z,30.3288,-87.8293,15.54,1111122 
DISL,ioos:station:DISL:BSCA:1,2017-02-06T04:00:00Z,30.3288,-87.8293,15.33,1111122 
DISL,ioos:station:DISL:BSCA:1,2017-02-06T04:30:00Z,30.3288,-87.8293,15.6,1111122 
DISL,ioos:station:DISL:BSCA:1,2017-02-06T05:00:00Z,30.3288,-87.8293,15.91,1111122 
DISL,ioos:station:DISL:BSCA:1,2017-02-06T05:30:00Z,30.3288,-87.8293,15.46,1111122 
DISL,ioos:station:DISL:BSCA:1,2017-02-06T06:00:00Z,30.3288,-87.8293,15.81,1111122 
DISL,ioos:station:DISL:BSCA:1,2017-02-06T06:30:00Z,30.3288,-87.8293,15.23,1111122 
DISL,ioos:station:DISL:BSCA:1,2017-02-06T07:00:00Z,30.3288,-87.8293,15.67,1111122 
DISL,ioos:station:DISL:BSCA:1,2017-02-06T07:30:00Z,30.3288,-87.8293,15.91,1111122 
DISL,ioos:station:DISL:BSCA:1,2017-02-06T08:00:00Z,30.3288,-87.8293,16.17,1111122 
DISL,ioos:station:DISL:BSCA:1,2017-02-06T08:30:00Z,30.3288,-87.8293,15.93,1111122 
DISL,ioos:station:DISL:BSCA:1,2017-02-06T09:00:00Z,30.3288,-87.8293,16.21,1111122 
DISL,ioos:station:DISL:BSCA:1,2017-02-06T09:30:00Z,30.3288,-87.8293,15.43,1111122 
DISL,ioos:station:DISL:BSCA:1,2017-02-06T10:00:00Z,30.3288,-87.8293,14.05,1111122 
DISL,ioos:station:DISL:BSCA:1,2017-02-06T10:30:00Z,30.3288,-87.8293,14.05,1111122 
DISL,ioos:station:DISL:BSCA:1,2017-02-06T11:00:00Z,30.3288,-87.8293,13.88,1111122 
DISL,ioos:station:DISL:BSCA:1,2017-02-06T11:30:00Z,30.3288,-87.8293,13.34,1111122 
DISL,ioos:station:DISL:BSCA:1,2017-02-06T12:00:00Z,30.3288,-87.8293,13.58,1111122 
DISL,ioos:station:DISL:BSCA:1,2017-02-06T12:30:00Z,30.3288,-87.8293,13.98,1111122 
DISL,ioos:station:DISL:BSCA:1,2017-02-06T13:00:00Z,30.3288,-87.8293,13.95,1111122 
DISL,ioos:station:DISL:BSCA:1,2017-02-06T13:30:00Z,30.3288,-87.8293,13.92,1111122 
DISL,ioos:station:DISL:BSCA:1,2017-02-06T14:00:00Z,30.3288,-87.8293,14.97,1111122 
DISL,ioos:station:DISL:BSCA:1,2017-02-06T14:30:00Z,30.3288,-87.8293,15.7,1111122 
DISL,ioos:station:DISL:BSCA:1,2017-02-06T15:00:00Z,30.3288,-87.8293,16.51,1111122 
DISL,ioos:station:DISL:BSCA:1,2017-02-06T15:30:00Z,30.3288,-87.8293,17.36,1111122 
DISL,ioos:station:DISL:BSCA:1,2017-02-06T16:00:00Z,30.3288,-87.8293,17.14,1111122 
DISL,ioos:station:DISL:BSCA:1,2017-02-06T16:30:00Z,30.3288,-87.8293,17.61,1111122 
DISL,ioos:station:DISL:BSCA:1,2017-02-06T17:00:00Z,30.3288,-87.8293,17.71,1111122 
DISL,ioos:station:DISL:BSCA:1,2017-02-06T17:30:00Z,30.3288,-87.8293,18.05,1111122 
DISL,ioos:station:DISL:BSCA:1,2017-02-06T18:00:00Z,30.3288,-87.8293,18.18,1111122 
DISL,ioos:station:DISL:BSCA:1,2017-02-06T18:30:00Z,30.3288,-87.8293,17.98,1111122 
DISL,ioos:station:DISL:BSCA:1,2017-02-06T19:00:00Z,30.3288,-87.8293,18.12,1111122 
DISL,ioos:station:DISL:BSCA:1,2017-02-06T19:30:00Z,30.3288,-87.8293,18.12,1111122 
DISL,ioos:station:DISL:BSCA:1,2017-02-06T20:00:00Z,30.3288,-87.8293,17.88,1111122 
DISL,ioos:station:DISL:BSCA:1,2017-02-06T20:30:00Z,30.3288,-87.8293,17.95,1111122 
DISL,ioos:station:DISL:BSCA:1,2017-02-06T21:00:00Z,30.3288,-87.8293,17.88,1111122 
DISL,ioos:station:DISL:BSCA:1,2017-02-06T21:30:00Z,30.3288,-87.8293,17.91,1111122 
DISL,ioos:station:DISL:BSCA:1,2017-02-06T22:00:00Z,30.3288,-87.8293,17.84,1111122 
DISL,ioos:station:DISL:BSCA:1,2017-02-06T22:30:00Z,30.3288,-87.8293,17.81,1111122 
DISL,ioos:station:DISL:BSCA:1,2017-02-06T23:00:00Z,30.3288,-87.8293,17.65,1111122 
DISL,ioos:station:DISL:BSCA:1,2017-02-06T23:30:00Z,30.3288,-87.8293,17.56,1111122 